AUA2386 LYTV-LOWS

Flight info

Callsign AUA2386
Flight time 1h 14m
Altitude 36000
Route TIBRI DCT NERRA DCT OKLAX DCT DABAR DCT DARZA DCT BERTA DCT INGID DCT RASTA RASTA2R
Aircraft A320/M-SDE3FGHIRWY/LB1

Departure

Time 2026-05-09 20:03
Airport Tivat Airport (LYTV)

Arrival

Time 2026-05-09 21:18
Airport Salzburg Airport (LOWS)
Time Latitude Longitude Altitude Speed Heading
2026-05-09 19:43 42.41304 18.71594 -8 ft 0 kts 161°
2026-05-09 20:01 42.41275 18.71602 -6 ft 7 kts 191°
2026-05-09 20:01 42.41282 18.71550 -8 ft 11 kts 309°
2026-05-09 20:01 42.41329 18.71496 -7 ft 4 kts 320°
2026-05-09 20:01 42.41350 18.71468 -7 ft 7 kts 308°
2026-05-09 20:02 42.41345 18.71390 -6 ft 10 kts 235°
2026-05-09 20:02 42.41287 18.71360 -7 ft 9 kts 159°
2026-05-09 20:02 42.41263 18.71388 -9 ft 0 kts 136°
2026-05-09 20:03 42.41173 18.71499 -7 ft 51 kts 138°
2026-05-09 20:03 42.40719 18.72032 -8 ft 119 kts 139°
2026-05-09 20:03 42.39970 18.72926 122 ft 155 kts 139°
2026-05-09 20:03 42.39148 18.73851 784 ft 154 kts 150°
2026-05-09 20:04 42.38171 18.74487 1377 ft 161 kts 157°
2026-05-09 20:04 42.37061 18.75100 1690 ft 183 kts 159°
2026-05-09 20:04 42.35817 18.75763 2082 ft 202 kts 159°
2026-05-09 20:04 42.34476 18.76494 2644 ft 212 kts 158°
2026-05-09 20:05 42.33105 18.77259 3401 ft 214 kts 157°
2026-05-09 20:05 42.31739 18.78028 4130 ft 216 kts 157°
2026-05-09 20:05 42.30327 18.78830 4886 ft 218 kts 156°
2026-05-09 20:05 42.28894 18.79449 5564 ft 222 kts 173°
2026-05-09 20:06 42.27341 18.79323 6159 ft 233 kts 196°
2026-05-09 20:06 42.25797 18.78366 6489 ft 257 kts 208°
2026-05-09 20:06 42.24156 18.77171 6906 ft 276 kts 208°
2026-05-09 20:06 42.22441 18.75932 7661 ft 281 kts 209°
2026-05-09 20:07 42.20892 18.74318 8451 ft 284 kts 231°
2026-05-09 20:07 42.19942 18.72000 9273 ft 285 kts 256°
2026-05-09 20:07 42.19781 18.69341 9996 ft 287 kts 281°
2026-05-09 20:07 42.20463 18.66839 10803 ft 286 kts 303°
2026-05-09 20:08 42.21833 18.64903 11536 ft 292 kts 324°
2026-05-09 20:08 42.25908 18.62680 11912 ft 340 kts 339°
2026-05-09 20:08 42.28219 18.61591 12054 ft 361 kts 339°
2026-05-09 20:09 42.30621 18.60453 12507 ft 371 kts 339°
2026-05-09 20:09 42.33068 18.59288 13139 ft 375 kts 339°
2026-05-09 20:09 42.35537 18.58102 13812 ft 377 kts 338°
2026-05-09 20:09 42.38000 18.56849 14427 ft 379 kts 333°
2026-05-09 20:10 42.40278 18.55066 15012 ft 379 kts 322°
2026-05-09 20:10 42.42240 18.52697 15602 ft 379 kts 311°
2026-05-09 20:10 42.43838 18.49845 16177 ft 381 kts 303°
2026-05-09 20:10 42.45318 18.46849 16805 ft 383 kts 303°
2026-05-09 20:11 42.46804 18.43845 17405 ft 385 kts 302°
2026-05-09 20:11 42.48280 18.40866 17970 ft 387 kts 302°
2026-05-09 20:11 42.49808 18.37784 18527 ft 390 kts 302°
2026-05-09 20:11 42.51302 18.34769 19003 ft 392 kts 302°
2026-05-09 20:12 42.52827 18.31686 19475 ft 394 kts 302°
2026-05-09 20:12 42.54355 18.28593 19929 ft 396 kts 302°
2026-05-09 20:12 42.55897 18.25470 20400 ft 398 kts 302°
2026-05-09 20:12 42.57437 18.22342 20849 ft 400 kts 302°
2026-05-09 20:13 42.58985 18.19193 21275 ft 402 kts 302°
2026-05-09 20:13 42.60545 18.16018 21681 ft 404 kts 302°
2026-05-09 20:13 42.62109 18.12833 22073 ft 406 kts 302°
2026-05-09 20:13 42.63677 18.09631 22455 ft 408 kts 302°
2026-05-09 20:14 42.65254 18.06407 22827 ft 410 kts 302°
2026-05-09 20:14 42.66837 18.03170 23193 ft 412 kts 302°
2026-05-09 20:14 42.68427 17.99918 23551 ft 414 kts 302°
2026-05-09 20:14 42.70026 17.96647 23862 ft 416 kts 302°
2026-05-09 20:15 42.71630 17.93358 24170 ft 418 kts 302°
2026-05-09 20:15 42.73235 17.90060 24473 ft 419 kts 302°
2026-05-09 20:15 42.74847 17.86749 24763 ft 420 kts 302°
2026-05-09 20:15 42.76460 17.83433 25051 ft 421 kts 302°
2026-05-09 20:16 42.78075 17.80108 25324 ft 422 kts 302°
2026-05-09 20:16 42.79695 17.76772 25602 ft 423 kts 302°
2026-05-09 20:16 42.81316 17.73421 25860 ft 424 kts 302°
2026-05-09 20:16 42.82939 17.70058 26090 ft 425 kts 301°
2026-05-09 20:17 42.84543 17.66735 26337 ft 426 kts 301°
2026-05-09 20:17 42.86174 17.63358 26576 ft 427 kts 301°
2026-05-09 20:17 42.87803 17.59981 26898 ft 425 kts 301°
2026-05-09 20:17 42.89424 17.56621 27231 ft 424 kts 301°
2026-05-09 20:18 42.91159 17.53376 27565 ft 425 kts 308°
2026-05-09 20:18 42.93127 17.50374 27921 ft 424 kts 309°
2026-05-09 20:18 42.95091 17.47388 28273 ft 422 kts 308°
2026-05-09 20:18 42.97043 17.44418 28612 ft 421 kts 308°
2026-05-09 20:19 42.98996 17.41447 28970 ft 419 kts 308°
2026-05-09 20:19 43.00938 17.38488 29328 ft 418 kts 308°
2026-05-09 20:19 43.02877 17.35525 29642 ft 418 kts 308°
2026-05-09 20:19 43.04808 17.32565 29980 ft 417 kts 308°
2026-05-09 20:20 43.06086 17.30604 30186 ft 416 kts 308°
2026-05-09 20:20 43.08009 17.27650 30475 ft 415 kts 308°
2026-05-09 20:20 43.09926 17.24704 30771 ft 414 kts 308°
2026-05-09 20:20 43.11838 17.21764 31085 ft 412 kts 308°
2026-05-09 20:21 43.13746 17.18837 31419 ft 410 kts 308°
2026-05-09 20:21 43.16251 17.14984 31826 ft 408 kts 307°
2026-05-09 20:21 43.17522 17.13026 32025 ft 408 kts 307°
2026-05-09 20:21 43.19406 17.10124 32308 ft 407 kts 307°
2026-05-09 20:22 43.21284 17.07229 32614 ft 406 kts 307°
2026-05-09 20:22 43.23156 17.04339 32905 ft 405 kts 307°
2026-05-09 20:22 43.25022 17.01451 33174 ft 404 kts 307°
2026-05-09 20:22 43.26884 16.98562 33455 ft 404 kts 307°
2026-05-09 20:23 43.28742 16.95675 33739 ft 403 kts 307°
2026-05-09 20:23 43.30576 16.92827 34032 ft 402 kts 307°
2026-05-09 20:23 43.32424 16.89955 34280 ft 402 kts 307°
2026-05-09 20:23 43.34275 16.87082 34518 ft 401 kts 307°
2026-05-09 20:24 43.36126 16.84211 34768 ft 401 kts 307°
2026-05-09 20:24 43.37969 16.81349 35012 ft 400 kts 307°
2026-05-09 20:24 43.39809 16.78484 35249 ft 399 kts 307°
2026-05-09 20:24 43.41639 16.75630 35460 ft 398 kts 307°
2026-05-09 20:25 43.43468 16.72769 35667 ft 398 kts 307°
2026-05-09 20:25 43.45297 16.69900 35842 ft 398 kts 307°
2026-05-09 20:25 43.47120 16.67034 36033 ft 398 kts 306°
2026-05-09 20:26 43.50798 16.61251 36080 ft 404 kts 306°
2026-05-09 20:26 43.54507 16.55420 36080 ft 405 kts 306°
2026-05-09 20:27 43.58225 16.49588 36086 ft 405 kts 306°
2026-05-09 20:27 43.61938 16.43746 36075 ft 405 kts 306°
2026-05-09 20:28 43.65641 16.37898 36073 ft 404 kts 306°
2026-05-09 20:28 43.69307 16.32080 36087 ft 404 kts 306°
2026-05-09 20:29 43.74851 16.23268 36072 ft 405 kts 306°
2026-05-09 20:29 43.78549 16.17392 36075 ft 405 kts 306°
2026-05-09 20:30 43.82249 16.11497 36070 ft 405 kts 306°
2026-05-09 20:30 43.86022 16.05701 36080 ft 409 kts 313°
2026-05-09 20:31 43.90857 16.01347 36088 ft 420 kts 326°
2026-05-09 20:31 43.96070 15.97654 36086 ft 420 kts 326°
2026-05-09 20:32 44.01270 15.93943 36075 ft 420 kts 326°
2026-05-09 20:32 44.06467 15.90221 36079 ft 420 kts 326°
2026-05-09 20:33 44.11664 15.86487 36093 ft 420 kts 326°
2026-05-09 20:33 44.16853 15.82756 36097 ft 419 kts 326°
2026-05-09 20:34 44.22034 15.79030 36094 ft 419 kts 326°
2026-05-09 20:34 44.27224 15.75291 36085 ft 420 kts 326°
2026-05-09 20:35 44.32411 15.71544 36112 ft 419 kts 326°
2026-05-09 20:35 44.37593 15.67792 36109 ft 419 kts 326°
2026-05-09 20:36 44.42755 15.64044 36107 ft 418 kts 326°
2026-05-09 20:36 44.47925 15.60289 36106 ft 418 kts 326°
2026-05-09 20:37 44.53086 15.56532 36115 ft 418 kts 326°
2026-05-09 20:37 44.58205 15.52793 36111 ft 418 kts 326°
2026-05-09 20:38 44.63363 15.49017 36105 ft 417 kts 326°
2026-05-09 20:38 44.68508 15.45247 36105 ft 417 kts 326°
2026-05-09 20:39 44.73657 15.41471 36127 ft 417 kts 326°
2026-05-09 20:39 44.78801 15.37688 36116 ft 416 kts 326°
2026-05-09 20:40 44.83932 15.33909 36092 ft 416 kts 326°
2026-05-09 20:40 44.89059 15.30117 36084 ft 417 kts 326°
2026-05-09 20:41 44.94294 15.26524 36103 ft 424 kts 334°
2026-05-09 20:41 44.99919 15.23912 36099 ft 426 kts 334°
2026-05-09 20:42 45.05544 15.21312 36095 ft 425 kts 334°
2026-05-09 20:42 45.11168 15.18703 36084 ft 425 kts 334°
2026-05-09 20:43 45.16791 15.16081 36111 ft 425 kts 334°
2026-05-09 20:43 45.22378 15.13467 36103 ft 426 kts 334°
2026-05-09 20:44 45.28004 15.10829 36094 ft 426 kts 334°
2026-05-09 20:44 45.33623 15.08189 36088 ft 426 kts 334°
2026-05-09 20:45 45.39245 15.05547 36107 ft 426 kts 334°
2026-05-09 20:45 45.44875 15.02904 36103 ft 425 kts 334°
2026-05-09 20:46 45.50481 15.00273 36096 ft 425 kts 335°
2026-05-09 20:46 45.56183 14.97927 36092 ft 427 kts 337°
2026-05-09 20:47 45.61939 14.95763 36109 ft 428 kts 338°
2026-05-09 20:47 45.67684 14.93567 36097 ft 427 kts 337°
2026-05-09 20:48 45.73418 14.91301 36092 ft 426 kts 336°
2026-05-09 20:48 45.79132 14.89018 36089 ft 426 kts 337°
2026-05-09 20:49 45.84848 14.86736 36085 ft 426 kts 337°
2026-05-09 20:49 45.90560 14.84456 36080 ft 426 kts 337°
2026-05-09 20:50 45.96273 14.82167 36079 ft 426 kts 336°
2026-05-09 20:50 46.01990 14.79876 36112 ft 426 kts 337°
2026-05-09 20:51 46.07715 14.77590 36105 ft 426 kts 337°
2026-05-09 20:51 46.13393 14.75316 36118 ft 427 kts 337°
2026-05-09 20:52 46.19111 14.73018 36123 ft 427 kts 337°
2026-05-09 20:52 46.24831 14.70707 36150 ft 426 kts 337°
2026-05-09 20:53 46.30541 14.68394 36139 ft 424 kts 338°
2026-05-09 20:53 46.36221 14.66086 35896 ft 422 kts 337°
2026-05-09 20:54 46.39042 14.64937 35647 ft 421 kts 337°
2026-05-09 20:54 46.41864 14.63766 35398 ft 419 kts 334°
2026-05-09 20:54 46.44539 14.62213 35198 ft 410 kts 327°
2026-05-09 20:54 46.46986 14.60168 34946 ft 403 kts 320°
2026-05-09 20:55 46.49218 14.57738 34711 ft 400 kts 316°
2026-05-09 20:55 46.51407 14.55260 34480 ft 399 kts 316°
2026-05-09 20:55 46.53600 14.52788 34248 ft 398 kts 316°
2026-05-09 20:55 46.55786 14.50326 34002 ft 398 kts 316°
2026-05-09 20:56 46.57937 14.47898 33373 ft 395 kts 317°
2026-05-09 20:56 46.62308 14.42939 31503 ft 397 kts 317°
2026-05-09 20:56 46.64460 14.40493 30579 ft 398 kts 318°
2026-05-09 20:57 46.66647 14.38010 29514 ft 399 kts 319°
2026-05-09 20:57 46.68843 14.35508 28287 ft 404 kts 319°
2026-05-09 20:57 46.71081 14.32952 26851 ft 414 kts 320°
2026-05-09 20:57 46.73348 14.30364 26175 ft 410 kts 320°
2026-05-09 20:58 46.75573 14.27829 25681 ft 401 kts 321°
2026-05-09 20:58 46.77747 14.25351 25191 ft 393 kts 321°
2026-05-09 20:58 46.79887 14.22909 24716 ft 386 kts 321°
2026-05-09 20:58 46.81983 14.20510 24250 ft 381 kts 321°
2026-05-09 20:59 46.84051 14.18138 23807 ft 376 kts 321°
2026-05-09 20:59 46.86094 14.15789 23300 ft 371 kts 321°
2026-05-09 20:59 46.88117 14.13461 22783 ft 368 kts 321°
2026-05-09 21:00 46.92104 14.08876 21779 ft 362 kts 321°
2026-05-09 21:00 46.94074 14.06609 21356 ft 358 kts 321°
2026-05-09 21:00 46.96014 14.04375 20958 ft 352 kts 321°
2026-05-09 21:00 46.97926 14.02168 20582 ft 348 kts 321°
2026-05-09 21:01 46.99813 13.99986 20204 ft 343 kts 321°
2026-05-09 21:01 47.01675 13.97834 19844 ft 338 kts 321°
2026-05-09 21:01 47.03512 13.95709 19481 ft 334 kts 320°
2026-05-09 21:02 47.07118 13.91523 18765 ft 328 kts 320°
2026-05-09 21:02 47.08904 13.89451 18409 ft 326 kts 320°
2026-05-09 21:02 47.10678 13.87391 18005 ft 323 kts 320°
2026-05-09 21:02 47.12435 13.85350 17605 ft 321 kts 320°
2026-05-09 21:03 47.14181 13.83322 17207 ft 319 kts 320°
2026-05-09 21:03 47.15921 13.81299 16822 ft 318 kts 320°
2026-05-09 21:03 47.17649 13.79288 16418 ft 316 kts 320°
2026-05-09 21:03 47.19362 13.77291 16044 ft 313 kts 320°
2026-05-09 21:04 47.21065 13.75302 15672 ft 312 kts 320°
2026-05-09 21:04 47.22756 13.73321 15299 ft 309 kts 320°
2026-05-09 21:04 47.24420 13.71372 15037 ft 304 kts 320°
2026-05-09 21:04 47.26064 13.69448 14757 ft 301 kts 320°
2026-05-09 21:05 47.27147 13.68183 14534 ft 300 kts 320°
2026-05-09 21:05 47.28796 13.66305 14214 ft 299 kts 321°
2026-05-09 21:05 47.30455 13.64459 13930 ft 299 kts 322°
2026-05-09 21:05 47.32661 13.62028 13543 ft 298 kts 322°
2026-05-09 21:06 47.34315 13.60204 13260 ft 297 kts 321°
2026-05-09 21:06 47.35431 13.58968 13065 ft 296 kts 321°
2026-05-09 21:06 47.37070 13.57145 12780 ft 295 kts 321°
2026-05-09 21:06 47.38708 13.55323 12487 ft 294 kts 321°
2026-05-09 21:07 47.40341 13.53507 12209 ft 293 kts 321°
2026-05-09 21:07 47.41964 13.51699 11926 ft 292 kts 321°
2026-05-09 21:07 47.43562 13.49913 11654 ft 291 kts 321°
2026-05-09 21:07 47.45173 13.48110 11378 ft 290 kts 321°
2026-05-09 21:08 47.46782 13.46308 10973 ft 293 kts 321°
2026-05-09 21:08 47.48431 13.44458 10586 ft 291 kts 321°
2026-05-09 21:08 47.50006 13.42688 10411 ft 287 kts 321°
2026-05-09 21:08 47.51613 13.40879 10234 ft 286 kts 321°
2026-05-09 21:09 47.53156 13.39035 10098 ft 284 kts 314°
2026-05-09 21:09 47.54388 13.36761 9890 ft 284 kts 300°
2026-05-09 21:09 47.55236 13.34116 9365 ft 285 kts 291°
2026-05-09 21:09 47.55994 13.31394 8904 ft 286 kts 291°
2026-05-09 21:10 47.56746 13.28711 8466 ft 277 kts 291°
2026-05-09 21:10 47.57479 13.26115 8045 ft 268 kts 291°
2026-05-09 21:10 47.58189 13.23615 7639 ft 259 kts 291°
2026-05-09 21:10 47.58904 13.21212 7244 ft 252 kts 296°
2026-05-09 21:11 47.59877 13.19081 6843 ft 248 kts 309°
2026-05-09 21:12 47.65914 13.14243 5311 ft 250 kts 340°
2026-05-09 21:12 47.67503 13.13402 4979 ft 241 kts 340°
2026-05-09 21:12 47.69045 13.12570 4655 ft 231 kts 340°
2026-05-09 21:12 47.70510 13.11704 4359 ft 223 kts 339°
2026-05-09 21:13 47.71915 13.10825 4064 ft 216 kts 336°
2026-05-09 21:13 47.73247 13.09850 3777 ft 209 kts 334°
2026-05-09 21:13 47.74518 13.08882 3518 ft 201 kts 334°
2026-05-09 21:13 47.75758 13.07954 3295 ft 198 kts 336°
2026-05-09 21:14 47.76993 13.07079 3064 ft 195 kts 336°
2026-05-09 21:14 47.78217 13.06221 2986 ft 193 kts 336°
2026-05-09 21:14 47.79435 13.05367 3006 ft 194 kts 336°
2026-05-09 21:14 47.80656 13.04513 3007 ft 193 kts 336°
2026-05-09 21:15 47.81849 13.03677 2985 ft 180 kts 336°
2026-05-09 21:15 47.82914 13.02927 3003 ft 160 kts 336°
2026-05-09 21:15 47.83886 13.02212 3014 ft 155 kts 334°
2026-05-09 21:15 47.84730 13.01212 2810 ft 154 kts 301°
2026-05-09 21:16 47.84693 12.99748 2526 ft 152 kts 226°
2026-05-09 21:16 47.83798 12.99085 2247 ft 143 kts 194°
2026-05-09 21:16 47.82839 12.98719 1943 ft 141 kts 184°
2026-05-09 21:16 47.81880 12.98856 1748 ft 138 kts 163°
2026-05-09 21:17 47.80992 12.99346 1576 ft 136 kts 156°
2026-05-09 21:17 47.80118 12.99898 1436 ft 134 kts 157°
2026-05-09 21:17 47.79366 13.00372 1422 ft 95 kts 156°
2026-05-09 21:17 47.78909 13.00661 1422 ft 53 kts 157°
2026-05-09 21:18 47.78672 13.00811 1420 ft 21 kts 156°
2026-05-09 21:18 47.78554 13.00803 1421 ft 18 kts 238°
2026-05-09 21:18 47.78562 13.00618 1420 ft 21 kts 324°
2026-05-09 21:18 47.78716 13.00516 1423 ft 26 kts 337°
2026-05-09 21:19 47.79255 13.00176 1420 ft 30 kts 337°
2026-05-09 21:19 47.79452 13.00051 1420 ft 31 kts 337°
2026-05-09 21:20 47.79561 12.99950 1420 ft 13 kts 273°
2026-05-09 21:20 47.79559 12.99839 1421 ft 11 kts 329°
2026-05-09 21:20 47.79576 12.99769 1423 ft 8 kts 242°
2026-05-09 21:20 47.79536 12.99755 1422 ft 10 kts 135°
2026-05-09 21:21 47.79542 12.99863 1420 ft 10 kts 75°
2026-05-09 21:21 47.79557 12.99967 1420 ft 13 kts 106°
2026-05-09 21:21 47.79477 13.00037 1420 ft 15 kts 158°
2026-05-09 21:21 47.79379 13.00085 1420 ft 15 kts 191°
2026-05-09 21:22 47.79315 12.99961 1420 ft 14 kts 217°
2026-05-09 21:22 47.79222 12.99987 1420 ft 13 kts 157°
2026-05-09 21:22 47.79189 12.99971 1423 ft 5 kts 255°
2026-05-09 21:22 47.79197 12.99907 1420 ft 6 kts 282°
2026-05-09 21:23 47.79199 12.99888 1420 ft 0 kts 283°